Terug naar catalogus

CZ-2D Y92 STAGE 2

ActiefPO
NORAD 65946·ROCKET BODY·🇨🇳 China
Deze satellietnaam is nog niet bevestigd door officiële bronnen.

Gelanceerd Oct 13, 2025 vanaf Jiuquan Satellite Launch Center

Loading…

Volgende Passages (komende 24 uur)

TLE

VersSource: Space-Track

Epoch: Sep 14, 2026, 14:45 UTC

1 65946U 25227B   26257.61505635  .00007482  00000-0  23038-3 0  9991
2 65946  80.1557  17.0210 0018381   4.4532 355.6862 15.33343554 51432

Volg CZ-2D Y92 STAGE 2 in realtime met AllMySat

Download on the App Store